[[{"header":{"parameterUnit":"m.s-1","parameterCategory":1,"la1":30.2991,"la2":30.254,"lo1":-89.0895,"lo2":-89.0444,"dy":0.0017,"dx":0.0017,"nx":28,"ny":28,"refTime":"2024-06-09T21:00:00:Z","depth":0,"parameterNumber":2,"parameterNumberName":"U-component_of_WINDS"},"data":[0,0,0,0,0,0,0,0,0,0,0,0,0,0,0,0,0,0,0,0,0,0,0,0,0,0,0,0,0,0,0,0,0,0,0,0,0,0,0,0,0,0,0,0,0,0,0,0,0,0,0,0,0,0,0,0,0,0,-3.3008,-3.3008,0,-3.2962,-3.2962,-3.2961,-3.2788,-3.2784,-3.278,-3.2776,-3.2734,-3.2737,-3.2739,0,0,0,0,0,0,0,0,0,0,0,0,0,-3.2951,-3.2953,-3.3008,-3.3008,-3.3007,-3.2962,-3.2962,-3.2961,-3.2789,-3.2784,-3.2779,-3.2774,-3.2733,-3.2736,-3.2739,0,0,0,0,0,0,0,0,0,0,0,0,0,-3.2948,-3.2954,-3.3008,-3.2916,-3.2907,-3.2962,-3.2962,-3.2961,-3.279,-3.2784,-3.2778,-3.2772,-3.2732,-3.2736,-3.274,-3.2883,0,0,-3.2752,-3.2753,0,0,0,0,0,0,0,0,-3.2948,-3.295,-3.293,-3.2922,-3.2912,-3.2874,-3.2926,-3.2935,-3.2791,-3.2834,-3.2776,-3.2769,-3.2786,-3.2785,-3.279,-3.2881,-3.2879,-3.2752,-3.2754,-3.2756,-3.2757,0,0,0,0,0,0,0,-3.2949,-3.2951,-3.299,-3.293,-3.2919,-3.2877,-3.287,-3.2927,-3.2844,-3.283,-3.2817,-3.2814,-3.278,-3.2786,-3.2787,-3.2878,-3.2752,-3.2755,-3.2758,-3.2759,-3.3084,-3.309,0,0,0,0,0,0,-3.2961,-3.2952,-3.2991,-3.2989,-3.2916,-3.2883,-3.2875,-3.2893,-3.2843,-3.283,-3.2819,-3.2806,-3.2783,-3.2783,-3.2785,-3.2949,-3.2756,-3.276,-3.2762,-3.3078,-3.3086,-3.3092,0,0,0,0,0,0,-3.2961,-3.2967,-3.2993,-3.2967,-3.2967,-3.2891,-3.2912,-3.2895,-3.2901,-3.2835,-3.282,-3.284,-3.2778,-3.278,-3.2859,-3.2945,-3.2761,-3.2765,-3.3071,-3.308,-3.3089,-3.3279,0,0,0,0,0,0,-3.296,-3.2967,-3.302,-3.2969,-3.2969,-3.3068,-3.2917,-3.2898,-3.2907,-3.289,-3.2851,-3.2839,-3.2773,-3.2855,-3.2863,-3.2947,-3.2768,-3.3063,-3.3075,-3.3086,-3.3265,-3.3294,-3.3319,0,0,0,0,0,-3.2958,-3.3077,-3.3024,-3.3029,-3.3034,-3.3073,-3.3073,-3.2994,-3.2915,-3.2968,-3.2925,-3.284,-3.2934,-3.2864,-3.2872,-3.2959,-3.3057,-3.3071,-3.3085,-3.3253,-3.3288,-3.3318,0,0,0,0,0,0,-3.3142,-3.3069,-3.3009,-3.3114,-3.3101,-3.3044,-3.3108,-3.3034,-3.3045,-3.3029,-3.2931,-3.2924,-3.3018,-3.2996,-3.2919,-3.3095,-3.2981,-3.2998,-3.3106,-3.3139,-3.3165,-3.3169,-3.2771,0,0,0,0,0,-3.3194,-3.3231,-3.3165,-3.3265,-3.3261,-3.3186,-3.3201,-3.3141,-3.3124,-3.3118,-3.3081,-3.307,-3.3096,-3.3116,-3.3137,-3.326,-3.325,-3.3324,-3.3351,-3.3373,-3.339,-3.3453,-3.3486,-3.3139,-3.3139,-3.3139,0,0,-3.3304,-3.3268,-3.3298,-3.3301,-3.3283,-3.3325,-3.3183,-3.3233,-3.3263,-3.3126,-3.3198,-3.3171,-3.3152,-3.3254,-3.3297,-3.3239,-3.3482,-3.3392,-3.341,-3.3414,-3.3471,-3.3504,-3.3533,-3.3149,-3.3147,-3.3145,0,0,-3.3524,-3.3501,-3.358,-3.3565,-3.354,-3.3489,-3.3509,-3.3462,-3.3438,-3.3509,-3.3407,-3.3442,-3.349,-3.348,-3.3482,-3.3697,-3.3619,-3.3707,-3.3848,-3.3912,-3.3939,-3.3963,-3.404,-3.4069,-3.3723,-3.3723,-3.3723,0,-3.3664,-3.3721,-3.3631,-3.3687,-3.3692,-3.3567,-3.3648,-3.3638,-3.3623,-3.3629,-3.3563,-3.362,-3.3599,-3.3697,-3.3749,-3.3754,-3.3774,-3.3711,-3.3942,-3.3965,-3.3986,-3.4059,-3.4088,-3.3734,-3.3733,-3.3732,-3.3731,0,-3.3894,-3.3935,-3.4002,-3.3988,-3.4,-3.4069,-3.3991,-3.4014,-3.3953,-3.3909,-3.3983,-3.3952,-3.3965,-3.3983,-3.3925,-3.4074,-3.4038,-3.3959,-3.3843,-3.4031,-3.4098,-3.4125,-3.3749,-3.3746,-3.3742,-3.374,0,0,-3.4231,-3.4164,-3.419,-3.4182,-3.4144,-3.4175,-3.4238,-3.4248,-3.427,-3.4263,-3.4314,-3.4357,-3.4283,-3.4285,-3.4224,-3.428,-3.4453,-3.4193,-3.4191,-3.4243,-3.4616,-3.4676,-3.471,-3.44,-3.4405,-3.4409,-3.4617,0,-3.4441,-3.4542,-3.4463,-3.458,-3.4617,-3.4499,-3.4553,-3.4537,-3.4498,-3.4525,-3.4482,-3.4514,-3.4414,-3.4414,-3.4464,-3.4422,-3.4527,-3.4405,-3.4449,-3.4451,-3.4458,-3.4745,-3.4809,-3.5008,-3.4643,-3.4647,-3.465,0,-3.47,-3.4702,-3.4822,-3.4775,-3.4788,-3.4839,-3.4841,-3.4868,-3.4847,-3.4815,-3.4817,-3.4741,-3.48,-3.4686,-3.4767,-3.4687,-3.47,-3.4682,-3.4687,-3.469,-3.4563,-3.4756,-3.5069,-3.5099,-3.4691,-3.4688,-3.4685,0,-3.4934,-3.4967,-3.5043,-3.5039,-3.4987,-3.5025,-3.5006,-3.4978,-3.4989,-3.4992,-3.4998,-3.5009,-3.5016,-3.5027,-3.4956,-3.4879,-3.5048,-3.4927,-3.5024,-3.5026,-3.5066,-3.5064,-3.5386,-3.5073,-3.5073,-3.5072,-3.5071,0,-3.5178,-3.5257,-3.5147,-3.5195,-3.5279,-3.5187,-3.5274,-3.5242,-3.5219,-3.5258,-3.5157,-3.5197,-3.51,-3.5131,-3.5076,-3.5153,-3.5156,-3.5133,-3.5118,-3.5143,-3.5146,-3.5151,-3.5136,-3.508,-3.5078,-3.5076,-3.5075,0,-3.5455,-3.5385,-3.546,-3.5403,-3.539,-3.5455,-3.5407,-3.5449,-3.5402,-3.5454,-3.5461,-3.5389,-3.5419,-3.5349,-3.537,-3.5333,-3.5443,-3.5405,-3.5449,-3.5439,-3.554,-3.5532,-3.5877,-3.5918,-3.5578,-3.5581,-3.5584,0,-3.5616,-3.5673,-3.5621,-3.5639,-3.5624,-3.5655,-3.5665,-3.5577,-3.5592,-3.5572,-3.5617,-3.5638,-3.565,-3.5704,-3.5655,-3.5671,-3.5633,-3.5753,-3.5635,-3.5658,-3.5636,-3.5634,-3.564,-3.5778,-3.5782,-3.5786,-3.5789,0,-3.5909,-3.587,-3.5887,-3.5893,-3.5907,-3.5907,-3.5901,-3.5922,-3.5828,-3.585,-3.5878,-3.5888,-3.5908,-3.5931,-3.5935,-3.5916,-3.5838,-3.5826,-3.5849,-3.5876,-3.59,-3.5889,-3.5517,-3.5819,-3.5816,-3.5813,-3.5812,-3.5811,-3.6133,-3.6177,-3.6148,-3.617,-3.6155,-3.6151,-3.6187,-3.6144,-3.6165,-3.6173,-3.612,-3.6161,-3.6138,-3.6135,-3.6124,-3.6156,-3.6102,-3.6136,-3.6144,-3.6154,-3.6171,-3.5894,-3.6156,-3.6155,-3.6154,-3.6153,-3.6153,0,-3.6421,-3.6395,-3.6416,-3.6409,-3.6427,-3.6348,-3.6337,-3.6358,-3.6394,-3.6378,-3.6391,-3.6425,-3.6446,-3.6398,-3.6412,-3.6447,-3.6411,-3.6454,-3.6451,-3.6448,-3.6218,-3.6197,-3.6482,-3.6482,-3.6482,-3.6482,-3.6482,-3.6482,-3.6573,-3.6645,-3.6603,-3.6667,-3.6641,-3.6677,-3.6678,-3.6674,-3.6661,-3.6701,-3.6718,-3.6685,-3.6657,-3.6668,-3.6685,-3.667,-3.6681,-3.6736,-3.671,-3.6496,-3.6464,-3.6434,-3.6413,-3.6739,-3.6739,-3.6937,-3.6939,-3.694]},{"header":{"parameterUnit":"m.s-1","parameterCategory":1,"la1":30.2991,"la2":30.254,"lo1":-89.0895,"lo2":-89.0444,"dy":0.0017,"dx":0.0017,"nx":28,"ny":28,"refTime":"2024-06-09T21:00:00:Z","depth":0,"parameterNumber":3,"parameterNumberName":"V-component_of_WINDS"},"data":[0,0,0,0,0,0,0,0,0,0,0,0,0,0,0,0,0,0,0,0,0,0,0,0,0,0,0,0,0,0,0,0,0,0,0,0,0,0,0,0,0,0,0,0,0,0,0,0,0,0,0,0,0,0,0,0,0,0,-3.7847,-3.7848,0,-3.7914,-3.7914,-3.7915,-3.7887,-3.7886,-3.7884,-3.7883,-3.7946,-3.7949,-3.7952,0,0,0,0,0,0,0,0,0,0,0,0,0,-3.769,-3.7693,-3.7847,-3.7848,-3.7849,-3.7914,-3.7914,-3.7915,-3.7888,-3.7886,-3.7884,-3.7882,-3.7945,-3.7948,-3.7952,0,0,0,0,0,0,0,0,0,0,0,0,0,-3.7758,-3.7694,-3.7847,-3.7843,-3.7843,-3.7913,-3.7914,-3.7916,-3.7888,-3.7886,-3.7883,-3.7881,-3.7943,-3.7948,-3.7953,-3.8029,0,0,-3.7967,-3.7969,0,0,0,0,0,0,0,0,-3.7754,-3.7763,-3.7842,-3.7843,-3.7844,-3.789,-3.7882,-3.7953,-3.7889,-3.7871,-3.7883,-3.788,-3.7929,-3.7934,-3.7952,-3.8032,-3.8035,-3.7967,-3.797,-3.7972,-3.7974,0,0,0,0,0,0,0,-3.7749,-3.776,-3.7873,-3.7844,-3.7844,-3.7836,-3.7843,-3.7896,-3.7912,-3.7872,-3.787,-3.7879,-3.7928,-3.7947,-3.7953,-3.8036,-3.7967,-3.7972,-3.7974,-3.7976,-3.8181,-3.8183,0,0,0,0,0,0,-3.7745,-3.7757,-3.7871,-3.7875,-3.7792,-3.7841,-3.7848,-3.7877,-3.7911,-3.7914,-3.7881,-3.7877,-3.7941,-3.7948,-3.7955,-3.8046,-3.7972,-3.7977,-3.7979,-3.8178,-3.8181,-3.8184,0,0,0,0,0,0,-3.7742,-3.7756,-3.7868,-3.7815,-3.7829,-3.7846,-3.7879,-3.788,-3.7899,-3.7918,-3.792,-3.7898,-3.7939,-3.7949,-3.8011,-3.8048,-3.7979,-3.7983,-3.8175,-3.8179,-3.8183,-3.823,0,0,0,0,0,0,-3.7738,-3.7755,-3.7785,-3.7816,-3.7832,-3.7925,-3.7881,-3.7883,-3.7908,-3.7904,-3.7934,-3.7937,-3.7938,-3.8004,-3.8016,-3.8053,-3.7987,-3.8172,-3.8177,-3.8182,-3.8225,-3.8235,-3.8243,0,0,0,0,0,-3.7732,-3.7795,-3.7787,-3.7801,-3.7871,-3.7927,-3.7936,-3.7937,-3.7911,-3.7941,-3.7953,-3.7936,-3.8043,-3.8011,-3.8024,-3.8063,-3.817,-3.8176,-3.8181,-3.8221,-3.8233,-3.8243,0,0,0,0,0,0,-3.7766,-3.7799,-3.779,-3.7866,-3.7894,-3.7922,-3.796,-3.795,-3.7985,-3.7979,-3.7978,-3.7985,-3.8049,-3.8062,-3.8027,-3.8139,-3.8102,-3.8111,-3.8128,-3.8139,-3.8148,-3.8143,-3.7991,0,0,0,0,0,-3.7782,-3.7827,-3.7853,-3.7916,-3.7931,-3.7943,-3.7968,-3.7966,-3.7995,-3.8006,-3.8023,-3.805,-3.8089,-3.8115,-3.8152,-3.8227,-3.8232,-3.826,-3.827,-3.8277,-3.8284,-3.8323,-3.8336,-3.8203,-3.8203,-3.8203,0,0,-3.7816,-3.784,-3.7867,-3.7924,-3.7945,-3.799,-3.7953,-3.8002,-3.8034,-3.8013,-3.8073,-3.8087,-3.8116,-3.8185,-3.8216,-3.8198,-3.8322,-3.8284,-3.829,-3.8293,-3.8331,-3.8343,-3.8354,-3.8207,-3.8207,-3.8206,0,0,-3.79,-3.7923,-3.7978,-3.8001,-3.8036,-3.8043,-3.8057,-3.8087,-3.8095,-3.8156,-3.8141,-3.8178,-3.8247,-3.8268,-3.8288,-3.8381,-3.8366,-3.8393,-3.844,-3.8478,-3.8489,-3.8498,-3.853,-3.8541,-3.84,-3.84,-3.84,0,-3.7937,-3.8005,-3.8008,-3.8058,-3.8082,-3.8067,-3.8122,-3.8143,-3.8187,-3.8203,-3.8183,-3.8268,-3.8287,-3.836,-3.8383,-3.84,-3.8414,-3.8389,-3.8488,-3.8497,-3.8505,-3.8536,-3.8548,-3.8403,-3.8403,-3.8403,-3.8402,0,-3.8048,-3.8096,-3.8136,-3.8181,-3.821,-3.8262,-3.827,-3.8299,-3.8295,-3.8305,-3.8366,-3.8389,-3.843,-3.8447,-3.8443,-3.852,-3.8507,-3.8488,-3.845,-3.8521,-3.8549,-3.8561,-3.8408,-3.8406,-3.8406,-3.8405,0,0,-3.8155,-3.8201,-3.8215,-3.8235,-3.8272,-3.8307,-3.8358,-3.84,-3.8424,-3.8455,-3.8497,-3.8555,-3.8537,-3.8559,-3.8558,-3.8592,-3.8662,-3.8567,-3.8568,-3.8583,-3.8746,-3.876,-3.8774,-3.8653,-3.8655,-3.8657,-3.8743,0,-3.8241,-3.8332,-3.8336,-3.8418,-3.8461,-3.8447,-3.8491,-3.8517,-3.8527,-3.8564,-3.8574,-3.8615,-3.8589,-3.8602,-3.8635,-3.8647,-3.8695,-3.8641,-3.869,-3.8691,-3.8682,-3.8789,-3.8804,-3.8884,-3.8754,-3.8756,-3.8758,0,-3.8353,-3.8389,-3.8476,-3.8507,-3.8525,-3.8565,-3.8603,-3.8639,-3.8668,-3.8672,-3.8698,-3.8692,-3.8742,-3.8704,-3.8772,-3.8735,-3.8755,-3.8764,-3.8767,-3.8771,-3.8728,-3.8794,-3.8909,-3.8921,-3.8775,-3.8774,-3.8773,0,-3.8421,-3.8491,-3.8552,-3.8569,-3.8606,-3.8634,-3.8651,-3.8678,-3.8703,-3.8736,-3.8752,-3.879,-3.881,-3.8839,-3.8842,-3.8815,-3.891,-3.8873,-3.8914,-3.8914,-3.8933,-3.8932,-3.9053,-3.8949,-3.8949,-3.8948,-3.8948,0,-3.8516,-3.8569,-3.8583,-3.862,-3.8679,-3.8682,-3.874,-3.8754,-3.8778,-3.8816,-3.8806,-3.8842,-3.8845,-3.8881,-3.8884,-3.8939,-3.8948,-3.8952,-3.8952,-3.8952,-3.8952,-3.8965,-3.8959,-3.8952,-3.8951,-3.895,-3.895,0,-3.86,-3.8612,-3.8677,-3.8708,-3.8716,-3.8758,-3.8783,-3.8818,-3.8827,-3.8876,-3.8888,-3.8902,-3.8944,-3.8951,-3.9,-3.9001,-3.9067,-3.9062,-3.9058,-3.9057,-3.9097,-3.9093,-3.9229,-3.9247,-3.9133,-3.9134,-3.9135,0,-3.866,-3.8701,-3.8736,-3.8762,-3.878,-3.8822,-3.8848,-3.8852,-3.8879,-3.8915,-3.8945,-3.8987,-3.902,-3.9088,-3.9102,-3.9139,-3.9133,-3.9179,-3.9139,-3.9138,-3.9133,-3.913,-3.9133,-3.9186,-3.9187,-3.9188,-3.9189,0,-3.8763,-3.8767,-3.8806,-3.8846,-3.8878,-3.891,-3.894,-3.8961,-3.8969,-3.8999,-3.9043,-3.907,-3.9121,-3.9161,-3.9199,-3.9213,-3.9202,-3.9202,-3.9213,-3.9213,-3.9209,-3.9211,-3.9078,-3.9198,-3.9197,-3.9197,-3.9196,-3.9196,-3.8836,-3.8872,-3.8902,-3.8945,-3.8969,-3.8997,-3.9031,-3.9045,-3.9083,-3.9126,-3.9126,-3.9174,-3.92,-3.9249,-3.9267,-3.9303,-3.9288,-3.9305,-3.9309,-3.9312,-3.9316,-3.9205,-3.931,-3.931,-3.9309,-3.9309,-3.9309,0,-3.8938,-3.8957,-3.8997,-3.904,-3.9074,-3.9063,-3.9095,-3.9123,-3.9166,-3.9193,-3.9227,-3.9277,-3.9316,-3.9334,-3.9372,-3.9398,-3.9393,-3.9408,-3.9405,-3.9408,-3.9328,-3.9314,-3.941,-3.941,-3.941,-3.941,-3.941,-3.941,-3.8995,-3.9055,-3.9062,-3.9132,-3.915,-3.9199,-3.9218,-3.9243,-3.9265,-3.9322,-3.9356,-3.9367,-3.939,-3.943,-3.9465,-3.9469,-3.9483,-3.9499,-3.95,-3.9424,-3.9414,-3.9404,-3.9391,-3.9502,-3.9502,-3.9578,-3.9578,-3.9579]}]]